map of RAO home
RAO - Airport
Location
City:  Riberão Preto, São Paulo, Brazil
Name:Leite Lopes
ICAO:SBRP
IATA:RAO

Details
Type:Airport (Aerodrome, Airfield)
Use:Public/Civil
Latitude:21°08'03"S (-21.134166)
Longitude:47°46'27"W (-47.774188)
Datum:WGS 1984
Elevation:1802 ft (549 m)
Variation:21.32°W (WMM2015 magnetic declination)
-0.12° annual change
Runways:1
Longest:6890 × 115 ft (2100 × 35 m), paved

Time
Time Zone:UTC-3 (DST-2)
Local Time:

Weather
METAR:SBRP 121700Z 05004KT 9999 BKN045 32/18 Q1012
TAF:SBRP 120903Z 1212/1312 01005KT CAVOK TX29/1217Z TN21/1309Z
BECMG 1212/1214 BKN040
BECMG 1218/1220 10005KT FEW045
BECMG 1223/1301 CAVOK
BECMG 1306/1308 02005KT
RMK PHM

Related Locations
Nearby:
Farthest:MMD: 12100 mi / 19474 km
Minamidaito [Minami Daito Airport], Minamidaito Jima, 47, JP

Find:

   beyond  
but within

Other Information
Maps:
NOTAMs:
Links:
Sources:

  
  • flag of Brazil
  • flag of São Paulo
  

Sectional Chart

Flight Planning
at skyvector.com

Satellite Image

Google Maps Satellite view

 

Copyright © 2004-2018 Karl L. Swartz. All rights reserved.
The Great Circle Mapper name and logo are trademarks of the Great Circle Mapper.
All other trademarks mentioned herein belong to their respective owners.
Please see credits for attibutions and further copyright information.

  Follow gcmap on Facebook Follow gcmap on Twitter Follow gcmap on Google+ GCmap on LinkedIn

hCard Microformat

Geo Microformat